www.pogodaiklimat.ru

Погода и климат >> Архив погоды >> Австралия >> Halls Creek Airport


ПОГОДА в Halls Creek Airport

  • Прогноз погоды в Halls Creek Airport
  • Монитор погоды в Halls Creek Airport
  • Климат города

АРХИВ ПОГОДЫ в Halls Creek Airport

Время (UTC), дата Ветер
(напр.,м/с)
 
Видим.   Явления Облачность Т
(С)
Тd
(С)
f
(%)
Тe
(С)
Тes
(С)
Комфортность P
(гПа)
Po
(гПа)
Тmin
(С)
Tmax
(С)
R
(мм)
R24
(мм)
S
(см)
13 11.12 Ю 2 н/о 1/0
[]
+32.8 +13.4 31 +34 +34 очень
жарко
1003.1 958.4 +43.5
15 11.12 ЮЗ 3 н/о н/о +30.9 +14.5 37 +33 +33 душно 1002.8 958.1
16 11.12 З 7 н/о н/о +32.2 +18.0 43 +37 +37 очень
душно
1002.6 957.9
18 11.12 ЮЗ 5 н/о н/о +30.6 +17.3 45 +35 +35 очень
душно
1001.8 957.2
19 11.12 ЮЗ 5 н/о н/о +29.8 +16.9 46 +33 +33 душно 1001.6 957.0
21 11.12 З 4 н/о н/о +28.3 +17.2 51 +32 +32 душно 1003.2 958.5
22 11.12 З 5 н/о н/о +30.2 +17.6 47 +34 +34 очень
душно
1003.5 958.8
00 12.12 ЮЗ 7 н/о н/о +34.7 +16.5 34 +37 +37 очень
душно
1003.5 958.8
01 12.12 З 6 н/о н/о +37.7 +17.1 30 +40 +40 очень
душно
1003.1 958.4 +28.3
03 12.12 Ю 7 н/о н/о +39.4 +14.4 23 +40 +40 очень
душно
1001.8 957.2
04 12.12 Ю 6 н/о н/о +41.5 +14.0 20 +42 +42 опасность
перегрева
1000.9 956.3
06 12.12 Ю 2 н/о н/о +42.7 +9.5 14 +41 +41 опасность
перегрева
999.6 955.1
07 12.12 ЮЗ 6 н/о 5/0
[]
+40.8 +11.8 18 +40 +43 очень
жарко
999.4 954.9
09 12.12 ЮЗ 5 н/о н/о +40.6 +9.9 16 +39 +39 очень
жарко
999.2 954.7
10 12.12 ЮЗ 3 н/о 8/0
[]
+39.2 +10.5 18 +38 +38 очень
жарко
999.4 954.9
12 12.12 ЮЗ 5 н/о н/о +35.6 +11.9 24 +35 +35 очень
жарко
1001.1 956.5
13 12.12 З 4 н/о 9/0
[]
+35.2 +12.8 26 +35 +35 очень
жарко
1001.5 956.9 +43.0
15 12.12 ЮЗ 4 н/о н/о +34.6 +14.0 29 +36 +36 душно 1000.8 956.2
16 12.12 Ю 5 н/о 10/0
[]
+34.8 +14.1 29 +36 +36 душно 1000.8 956.2
18 12.12 ЮЗ 5 н/о н/о +30.6 +17.7 46 +35 +35 очень
душно
1000.5 955.9
19 12.12 ЮЗ 3 н/о 9/0
[]
+30.4 +17.5 46 +34 +34 очень
душно
1000.6 956.0
21 12.12 ЮЗ 2 н/о н/о +30.5 +16.9 44 +34 +34 очень
душно
1001.7 957.1
22 12.12 З 1 н/о 5/0
[]
+30.7 +18.1 47 +35 +36 очень
душно
1002.0 957.4
00 13.12 ЮЗ 7 н/о н/о +35.8 +18.4 36 +40 +40 очень
душно
1003.6 958.9
01 13.12 ЮЗ 9 н/о 1/0
[]
+36.3 +19.3 37 +41 +43 опасность
перегрева
1003.3 958.6 +30.4
03 13.12 З 7 н/о н/о +38.3 +19.2 33 +43 +43 опасность
перегрева
1002.5 957.8
04 13.12 З 6 н/о н/о +40.5 +19.0 29 +45 +45 опасность
перегрева
1001.5 956.9
06 13.12 З 7 н/о н/о +42.0 +12.8 18 +42 +42 опасность
перегрева
999.0 954.5
07 13.12 З 6 н/о н/о +42.1 +14.5 20 +43 +43 опасность
перегрева
998.3 953.8
09 13.12 З 6 н/о н/о +39.7 +15.3 24 +41 +41 опасность
перегрева
998.1 953.6
10 13.12 З 6 н/о 10/0
[]
+38.8 +16.4 27 +41 +41 опасность
перегрева
998.9 954.4
12 13.12 Ю 4 н/о н/о +34.1 +20.1 44 +40 +40 очень
душно
1000.8 956.2
13 13.12 В 6 н/о в посл. час дождь со снегом {туман} 9/0
[]
+33.4 +18.7 42 +38 +38 очень
душно
1002.7 958.0 +43.3
15 13.12 СВ 5 н/о н/о +29.3 +21.0 61 +37 +37 очень
душно
1003.4 958.7
16 13.12 СВ 6 н/о {туман} 8/0
[]
+28.2 +20.7 64 +35 +35 очень
душно
1003.6 958.9
18 13.12 СВ 4 н/о н/о +26.4 +20.9 72 +33 +33 очень
душно
1003.3 958.6
19 13.12 С 3 н/о {туман} н/о +26.0 +21.0 74 +33 +33 очень
душно
1003.4 958.7
21 13.12 СВ 2 н/о н/о +25.9 +21.6 77 +33 +33 очень
душно
1004.2 959.5
22 13.12 С 2 н/о н/о +26.7 +21.5 73 +34 +34 очень
душно
1005.1 960.3
00 14.12 З 4 н/о н/о +31.2 +21.4 56 +39 +39 очень
душно
1005.1 960.3
01 14.12 З 4 н/о н/о +32.7 +20.9 50 +40 +40 очень
душно
1004.3 959.6 +25.9
03 14.12 СВ 3 н/о н/о +37.0 +17.1 31 +40 +40 очень
душно
1002.6 957.9
04 14.12 З 4 н/о н/о +37.6 +17.1 30 +40 +40 очень
душно
1001.6 957.0
06 14.12 ЮВ 3 н/о н/о +40.4 +11.5 18 +39 +39 очень
жарко
999.8 955.3
07 14.12 ЮЗ 4 н/о 1/0
[]
+41.0 +12.8 19 +41 +47 опасность
перегрева
999.3 954.8
09 14.12 Ю 5 н/о н/о +40.2 +10.5 17 +39 +39 очень
жарко
999.5 955.0
10 14.12 ЮЗ 4 н/о н/о +38.4 +12.2 21 +38 +38 очень
жарко
1000.1 955.5
12 14.12 Ю 2 н/о н/о +33.7 +15.2 33 +36 +36 очень
душно
1001.3 956.7
13 14.12 СВ 4 н/о н/о +31.9 +17.8 43 +36 +36 очень
душно
1002.0 957.4 +41.7
15 14.12 СВ 2 н/о н/о +28.7 +17.2 50 +33 +33 очень
душно
1001.9 957.3
16 14.12 штиль 0 н/о н/о +25.9 +16.7 57 +30 +30 душно 1001.5 956.9
18 14.12 З 4 н/о н/о +28.8 +17.0 49 +33 +33 очень
душно
1000.9 956.3
19 14.12 З 5 н/о н/о +29.4 +18.2 51 +34 +34 очень
душно
1001.2 956.6
21 14.12 З 6 н/о н/о +28.7 +21.7 66 +37 +37 очень
душно
1002.8 958.1
22 14.12 З 7 н/о н/о +29.1 +21.8 65 +37 +37 очень
душно
1003.2 958.5
00 15.12 З 7 н/о н/о +31.6 +22.0 57 +40 +40 очень
душно
1003.8 959.1
01 15.12 ЮЗ 8 н/о н/о +33.6 +21.7 50 +42 +42 опасность
перегрева
1003.5 958.8 +24.4
03 15.12 З 5 н/о н/о +37.2 +19.2 35 +42 +42 опасность
перегрева
1002.2 957.5
04 15.12 З 4 н/о н/о +38.3 +17.1 29 +41 +41 опасность
перегрева
1001.3 956.7
06 15.12 В 3 н/о н/о +40.2 +12.1 19 +40 +40 очень
жарко
999.6 955.1
07 15.12 ЮЗ 4 н/о н/о +40.6 +11.7 18 +40 +40 очень
жарко
999.1 954.6
09 15.12 ЮЗ 6 н/о н/о +39.6 +12.4 20 +39 +39 очень
жарко
999.2 954.7
10 15.12 З 7 н/о 10/0
[]
+35.6 +12.5 25 +36 +36 очень
жарко
999.7 955.2
12 15.12 ЮЗ 3 н/о н/о +33.9 +11.7 26 +34 +34 очень
жарко
1000.6 956.0
13 15.12 ЮЗ 3 н/о н/о +32.0 +12.3 30 +32 +32 жарко 1001.3 956.7 +41.9
15 15.12 ЮЗ 3 н/о н/о +30.9 +14.5 37 +33 +33 душно 1001.6 957.0
16 15.12 ЮЗ 2 н/о 1/0
[]
+30.3 +15.2 40 +33 +33 душно 1001.3 956.7
18 15.12 ЮЗ 3 н/о н/о +29.7 +16.1 44 +33 +33 душно 1001.3 956.7
19 15.12 В 3 н/о н/о +30.1 +16.5 44 +33 +33 душно 1002.7 958.0
21 15.12 З 3 н/о н/о +30.1 +18.5 50 +35 +35 очень
душно
1003.9 959.2
22 15.12 З 5 н/о н/о +30.8 +21.6 58 +39 +39 очень
душно
1004.7 959.9
00 16.12 З 6 н/о н/о +33.6 +22.1 51 +42 +42 опасность
перегрева
1005.3 960.5
01 16.12 ЮЗ 5 н/о н/о +34.7 +21.7 47 +43 +43 опасность
перегрева
1005.0 960.2 +29.5
03 16.12 З 5 н/о н/о +38.4 +19.3 33 +43 +43 опасность
перегрева
1003.6 958.9
04 16.12 З 4 н/о н/о +38.7 +15.7 26 +40 +40 очень
душно
1002.8 958.1
06 16.12 ЮЗ 4 н/о н/о +40.9 +12.7 19 +41 +41 опасность
перегрева
1001.0 956.4
07 16.12 СЗ 3 н/о 4/0
[]
+41.4 +12.3 18 +41 +47 опасность
перегрева
1000.2 955.6
09 16.12 ЮЗ 5 н/о н/о +40.1 +12.1 19 +39 +39 очень
жарко
1000.2 955.6
10 16.12 З 4 н/о н/о +38.7 +13.2 22 +39 +39 душно 1001.0 956.4
12 16.12 В 4 н/о н/о +32.9 +17.1 39 +36 +36 очень
душно
1003.7 959.0
13 16.12 СЗ 4 н/о н/о +33.0 +15.9 36 +36 +36 очень
душно
1003.7 959.0 +42.3
15 16.12 С 5 н/о н/о +31.3 +16.9 42 +35 +35 очень
душно
1004.2 959.5
16 16.12 СЗ 5 н/о 3/0
[]
+31.0 +16.6 42 +34 +34 душно 1003.3 958.6
18 16.12 СЗ 3 н/о н/о +29.9 +17.4 47 +34 +34 очень
душно
1002.5 957.8
19 16.12 С 2 н/о 4/0
[]
+29.7 +17.5 48 +34 +34 очень
душно
1003.3 958.6
21 16.12 З 3 н/о н/о +29.0 +18.1 52 +34 +34 очень
душно
1004.6 959.8
22 16.12 З 5 н/о н/о +30.1 +15.4 41 +33 +33 душно 1005.0 960.2
00 17.12 ЮЗ 7 н/о н/о +32.7 +11.8 28 +33 +33 жарко 1005.4 960.6
01 17.12 З 6 н/о н/о +34.0 +10.6 24 +33 +33 жарко 1005.4 960.6 +28.3
03 17.12 З 6 н/о н/о +36.0 +12.3 24 +36 +36 очень
жарко
1004.0 959.3
04 17.12 ЮЗ 3 н/о н/о +37.2 +12.6 23 +37 +37 очень
жарко
1003.5 958.8
06 17.12 З 5 н/о н/о +38.8 +7.5 15 +37 +37 очень
жарко
1001.9 957.3
07 17.12 З 4 н/о н/о +39.8 +8.3 15 +38 +38 очень
жарко
1001.1 956.5
09 17.12 З 4 н/о н/о +38.8 +7.5 15 +37 +37 очень
жарко
1001.5 956.9
10 17.12 ЮЗ 3 н/о н/о +36.7 +8.5 18 +35 +35 очень
жарко
1002.6 957.9
12 17.12 З 4 н/о н/о +33.2 +10.5 25 +33 +33 жарко 1003.9 959.2
13 17.12 З 3 н/о н/о +32.7 +10.7 26 +32 +32 жарко 1004.2 959.5 +40.7
15 17.12 В 1 н/о н/о +29.9 +11.4 32 +30 +30 жарко 1004.6 959.8
16 17.12 З 3 н/о н/о +29.3 +12.3 35 +30 +30 жарко 1003.9 959.2
18 17.12 ЮЗ 3 н/о н/о +28.4 +11.9 36 +29 +29 жарко 1003.4 958.7
19 17.12 ЮЗ 3 н/о н/о +29.0 +12.8 37 +30 +30 жарко 1003.7 959.0
21 17.12 ЮЗ 3 н/о н/о +27.4 +14.8 46 +30 +30 жарко 1005.2 960.4
22 17.12 ЮЗ 5 н/о н/о +28.9 +17.4 50 +33 +33 очень
душно
1005.8 961.0
00 18.12 ЮЗ 7 н/о н/о +31.3 +18.6 47 +36 +36 очень
душно
1006.4 961.6
01 18.12 ЮЗ 7 н/о н/о +33.0 +19.1 44 +38 +38 очень
душно
1006.5 961.7 +27.5
03 18.12 ЮЗ 6 н/о н/о +35.4 +14.1 28 +36 +36 очень
жарко
1005.6 960.8
04 18.12 ЮЗ 6 н/о н/о +37.6 +14.2 25 +38 +38 очень
жарко
1005.1 960.3
06 18.12 З 5 н/о н/о +38.5 +13.0 22 +38 +38 очень
жарко
1003.5 958.8
07 18.12 З 6 н/о н/о +39.0 +12.7 21 +39 +39 очень
жарко
1002.7 958.0
09 18.12 ЮЗ 6 н/о н/о +38.5 +12.3 21 +38 +38 очень
жарко
1003.1 958.4
10 18.12 ЮЗ 5 н/о 10/0
[]
+36.5 +12.7 24 +36 +36 очень
жарко
1004.0 959.3
12 18.12 ЮЗ 3 н/о н/о +34.4 +12.1 26 +34 +34 очень
жарко
1005.7 960.9
13 18.12 З 4 н/о 9/0
[]
+34.1 +11.3 25 +34 +34 очень
жарко
1006.2 961.4 +40.0

 

Местоположение метеостанции Halls Creek Airport (Западная Австралия, Австралия): широта -18.23 долгота 127.66 высота над уровнем моря 424 м.

В архиве по умолчанию представлена погода в Halls Creek Airport за последнюю неделю. Архивные данные за месяц целиком и за предыдущие месяцы, начиная с января 2011 года, Вы можете получить, выбрав интересующий диапазон дат из раскрывающегося списка и нажав кнопку "Ввод!".


*Определитесь, кто Вы:
робот инопланетянин человек

Внимание! Время в таблицах - всемирное. Для получения местного времени необходимо прибавить поправку, которая в Halls Creek Airport равна 8 ч.

Смотрите также архив погоды в соседних городах и на ближайших метеорологических станциях:

Погода в Argyle Aero (Западная Австралия, Австралия) (197 км)
Погода в Fitzroy Crossing Aero (Западная Австралия, Австралия) (222 км)
Погода в Kununurra (Западная Австралия, Австралия) (294 км)
Погода в Wyndham Aero (Западная Австралия, Австралия) (308 км)
Погода в Lajamanu (Северная территория, Австралия) (314 км)
Погода в Rabbit Flat (Северная территория, Австралия) (329 км)
Погода в Victoria River Downs (Северная территория, Австралия) (411 км)
Погода в Curtin Aero (Западная Австралия, Австралия) (413 км)
Погода в Derby Aero (Северная территория, Австралия) (435 км)
Погода в Kalumburu (Западная Австралия, Австралия) (450 км)

Пояснения к столбцам:

Ветер - указаны скорость ветра в м/с - средняя за 10 мин, порывы в срок и между сроками (в фигурных скобках) и направление, откуда дует ветер: С - северный, СВ - северо-восточный, В - восточный, ЮВ - юго-восточный, Ю - южный, ЮЗ - юго-западный, З - западный, СЗ - северо-западный.
Видимость - горизонтальная дальность видимости в метрах или километрах. При видимости от 1 до 10 км при отсутствии осадков обычно наблюдается дымка, при ухудшении видимости до 1 км и менее - туман. В сухую погоду видимость может ухудшаться дымом, пылью или мглою.
Явления - указаны атмосферные явления, наблюдавшиеся в срок или в последний час перед сроком; фигурными скобками обозначены явления, наблюдавшиеся между сроками (за 1-3 часа до срока); квадратными скобками обозначены град или гололедные отложения с указанием их диаметра в мм.
Облачность - указаны через наклонную черту общая и нижняя облачность в баллах и высота нижней границы облаков в метрах; квадратными скобками обозначены формы облаков: Ci - перистые, Cs - перисто-слоистые, Cc - перисто-кучевые, Ac - высококучевые, As - высокослоистые, Sc - слоисто-кучевые, Ns - слоисто-дождевые, Cu - кучевые, Cb - кучево-дождевые. Подробнее классификацию облаков см. в Атласе облаков (PDF).
T - Температура воздуха - температура, измеренная на высоте 2 м над землей.
Td - Температура точки росы - температура, при понижении до которой содержащийся в воздухе водяной пар достигнет насыщения.
f - Относительная влажность воздуха - влажноcть воздуха, измеренная на высоте 2 м над землей.
Te - Эффективная температура - температура, которую ощущает одетый по сезону человек в тени. Характеристика душности погоды. При расчете учитывается влияние влажности воздуха и скорости ветра на теплоощущения человека.
Tes - Эффективная температура на солнце - температура, которую ощущает человек, с поправкой на солнечный нагрев. Характеристика знойности погоды. Зависит от высоты солнца над горизонтом, облачности и скорости ветра. Ночью, в пасмурную погоду, а также при ветре 12 м/с и более поправка равна нулю.
P - Атмосферное давление - приведенное к уровню моря атмосферное давление.
Po - Атмосферное давление - измеренное на уровне метеостанции атмосферное давление.
Tmin - Минимальная температура - минимум температуры воздуха на высоте 2 м над землей.
Tmax - Максимальная температура - максимум температуры воздуха на высоте 2 м над землей.
R - Количество осадков - Количество выпавших осадков за период времени, мм. При наведении курсора мыши на число - период времени, за который выпало указанное количество осадков.
R24 - Количество осадков - Количество выпавших осадков за 24 часа, мм.
S - Снежный покров - Высота снежного покрова, см. При наведении курсора мыши на число - состояние снежного покрова и степень покрытия местности в баллах.